TimeCST,TemperatureF,Dew PointF,Humidity,Sea Level PressureIn,VisibilityMPH,Wind Direction,Wind SpeedMPH,Gust SpeedMPH,PrecipitationIn,Events,Conditions,WindDirDegrees,DateUTC
12:15 AM,23.0,19.4,86,30.08,10.0,WSW,3.5,-,N/A,,Clear,240,2012-11-29 06:15:00
12:35 AM,21.2,17.6,86,30.08,7.0,Calm,Calm,-,N/A,,Clear,0,2012-11-29 06:35:00
12:55 AM,21.2,19.4,93,30.08,7.0,Calm,Calm,-,N/A,,Clear,0,2012-11-29 06:55:00
1:15 AM,21.2,19.4,93,30.08,7.0,Calm,Calm,-,N/A,,Clear,0,2012-11-29 07:15:00
1:35 AM,19.4,19.4,100,30.08,4.0,Calm,Calm,-,N/A,,Clear,0,2012-11-29 07:35:00
1:55 AM,19.4,19.4,100,30.09,3.0,Calm,Calm,-,N/A,,Clear,0,2012-11-29 07:55:00
2:15 AM,19.4,19.4,100,30.09,3.0,Calm,Calm,-,N/A,,Clear,0,2012-11-29 08:15:00
2:35 AM,19.4,19.4,100,30.09,3.0,Calm,Calm,-,N/A,,Clear,0,2012-11-29 08:35:00
2:55 AM,17.6,17.6,100,30.09,3.0,Calm,Calm,-,N/A,,Clear,0,2012-11-29 08:55:00
3:15 AM,15.8,14.0,93,30.09,3.0,Calm,Calm,-,N/A,,Clear,0,2012-11-29 09:15:00
3:35 AM,14.0,14.0,100,30.07,4.0,Calm,Calm,-,N/A,,Clear,0,2012-11-29 09:35:00
3:55 AM,15.8,14.0,93,30.07,2.5,Calm,Calm,-,N/A,,Clear,0,2012-11-29 09:55:00
4:15 AM,14.0,12.2,93,30.07,2.5,Calm,Calm,-,N/A,,Clear,0,2012-11-29 10:15:00
4:35 AM,14.0,14.0,100,30.08,0.8,Calm,Calm,-,N/A,,Scattered Clouds,0,2012-11-29 10:35:00
4:55 AM,14.0,12.2,93,30.09,0.5,Calm,Calm,-,N/A,Fog,Light Freezing Fog,0,2012-11-29 10:55:00
5:15 AM,14.0,12.2,93,30.08,4.0,Calm,Calm,-,N/A,,Scattered Clouds,0,2012-11-29 11:15:00
5:35 AM,14.0,12.2,93,30.10,4.0,Calm,Calm,-,N/A,,Mostly Cloudy,0,2012-11-29 11:35:00
5:55 AM,14.0,12.2,93,30.08,5.0,Calm,Calm,-,N/A,,Scattered Clouds,0,2012-11-29 11:55:00
6:15 AM,12.2,12.2,100,30.09,5.0,Calm,Calm,-,N/A,,Scattered Clouds,0,2012-11-29 12:15:00
6:35 AM,12.2,12.2,100,30.09,5.0,Calm,Calm,-,N/A,,Scattered Clouds,0,2012-11-29 12:35:00
6:55 AM,12.2,10.4,92,30.10,5.0,Calm,Calm,-,N/A,,Mostly Cloudy,0,2012-11-29 12:55:00
7:15 AM,12.2,10.4,92,30.10,5.0,Calm,Calm,-,N/A,,Overcast,0,2012-11-29 13:15:00
7:35 AM,14.0,14.0,100,30.11,5.0,Calm,Calm,-,N/A,,Overcast,0,2012-11-29 13:35:00
7:55 AM,15.8,15.8,100,30.10,4.0,Calm,Calm,-,N/A,,Overcast,0,2012-11-29 13:55:00
8:15 AM,17.6,17.6,100,30.12,4.0,Calm,Calm,-,N/A,,Overcast,0,2012-11-29 14:15:00
8:35 AM,19.4,17.6,93,30.13,4.0,Calm,Calm,-,N/A,,Overcast,0,2012-11-29 14:35:00
8:55 AM,19.4,19.4,100,30.12,4.0,Calm,Calm,-,N/A,,Overcast,0,2012-11-29 14:55:00
9:15 AM,21.2,21.2,100,30.13,4.0,Calm,Calm,-,N/A,,Overcast,0,2012-11-29 15:15:00
9:35 AM,23.0,23.0,100,30.13,4.0,Calm,Calm,-,N/A,,Overcast,0,2012-11-29 15:35:00
9:55 AM,24.8,24.8,100,30.12,4.0,ENE,3.5,-,N/A,,Overcast,60,2012-11-29 15:55:00
10:15 AM,26.6,26.6,100,30.12,5.0,East,4.6,-,N/A,,Overcast,80,2012-11-29 16:15:00
10:35 AM,28.4,26.6,93,30.12,5.0,East,4.6,-,N/A,,Overcast,80,2012-11-29 16:35:00
10:55 AM,28.4,23.0,80,30.11,5.0,NE,5.8,-,N/A,,Overcast,50,2012-11-29 16:55:00
11:15 AM,28.4,23.0,80,30.11,7.0,ENE,4.6,-,N/A,,Overcast,60,2012-11-29 17:15:00
11:35 AM,28.4,23.0,80,30.11,7.0,ENE,4.6,-,N/A,,Overcast,70,2012-11-29 17:35:00
11:55 AM,28.4,23.0,80,30.11,7.0,NE,6.9,-,N/A,,Overcast,40,2012-11-29 17:55:00
12:15 PM,28.4,23.0,80,30.12,7.0,ENE,6.9,-,N/A,,Overcast,60,2012-11-29 18:15:00
12:35 PM,28.4,23.0,80,30.12,7.0,NE,5.8,-,N/A,,Overcast,50,2012-11-29 18:35:00
12:55 PM,28.4,23.0,80,30.12,7.0,NE,5.8,-,N/A,,Overcast,50,2012-11-29 18:55:00
1:15 PM,30.2,23.0,75,30.11,7.0,NE,4.6,-,N/A,,Overcast,50,2012-11-29 19:15:00
1:35 PM,30.2,23.0,75,30.11,7.0,ENE,5.8,-,N/A,,Overcast,60,2012-11-29 19:35:00
1:55 PM,28.4,23.0,80,30.11,7.0,ENE,6.9,-,N/A,,Overcast,60,2012-11-29 19:55:00
2:15 PM,28.4,23.0,80,30.12,7.0,NE,8.1,-,N/A,,Overcast,50,2012-11-29 20:15:00
2:35 PM,28.4,23.0,80,30.12,7.0,NE,8.1,-,N/A,,Overcast,50,2012-11-29 20:35:00
2:55 PM,28.4,23.0,80,30.12,7.0,NE,8.1,-,N/A,,Overcast,50,2012-11-29 20:55:00
3:15 PM,28.4,23.0,80,30.13,7.0,ENE,8.1,-,N/A,,Overcast,60,2012-11-29 21:15:00
3:35 PM,28.4,23.0,80,30.14,10.0,ENE,6.9,-,N/A,,Overcast,70,2012-11-29 21:35:00
3:55 PM,28.4,23.0,80,30.14,10.0,ENE,6.9,-,N/A,,Overcast,60,2012-11-29 21:55:00
4:15 PM,28.4,23.0,80,30.15,10.0,ENE,6.9,-,N/A,,Overcast,60,2012-11-29 22:15:00
4:35 PM,26.6,23.0,86,30.15,10.0,ENE,9.2,-,N/A,,Overcast,70,2012-11-29 22:35:00
4:55 PM,26.6,23.0,86,30.15,10.0,ENE,9.2,-,N/A,,Overcast,70,2012-11-29 22:55:00
5:15 PM,26.6,23.0,86,30.16,10.0,East,9.2,-,N/A,,Overcast,90,2012-11-29 23:15:00
5:35 PM,26.6,23.0,86,30.16,10.0,East,10.4,-,N/A,,Overcast,90,2012-11-29 23:35:00
5:55 PM,26.6,21.2,80,30.17,10.0,ESE,9.2,-,N/A,,Overcast,110,2012-11-29 23:55:00
6:15 PM,24.8,21.2,86,30.17,10.0,East,9.2,-,N/A,,Overcast,90,2012-11-30 00:15:00
6:35 PM,24.8,21.2,86,30.17,10.0,East,9.2,-,N/A,,Overcast,100,2012-11-30 00:35:00
6:55 PM,26.6,21.2,80,30.18,10.0,East,6.9,-,N/A,,Overcast,90,2012-11-30 00:55:00
7:15 PM,26.6,21.2,80,30.18,10.0,East,6.9,-,N/A,,Overcast,90,2012-11-30 01:15:00
7:35 PM,26.6,21.2,80,30.19,10.0,East,6.9,-,N/A,,Overcast,80,2012-11-30 01:35:00
7:55 PM,26.6,21.2,80,30.18,10.0,East,8.1,-,N/A,,Overcast,100,2012-11-30 01:55:00
8:15 PM,26.6,21.2,80,30.20,10.0,East,8.1,-,N/A,,Overcast,90,2012-11-30 02:15:00
8:35 PM,26.6,21.2,80,30.19,10.0,East,8.1,-,N/A,,Overcast,100,2012-11-30 02:35:00
8:55 PM,26.6,21.2,80,30.19,10.0,East,9.2,17.3,N/A,,Overcast,100,2012-11-30 02:55:00
9:15 PM,26.6,21.2,80,30.19,10.0,East,8.1,-,N/A,,Overcast,90,2012-11-30 03:15:00
9:35 PM,24.8,21.2,86,30.19,10.0,East,9.2,18.4,N/A,,Overcast,90,2012-11-30 03:35:00
9:55 PM,24.8,21.2,86,30.20,10.0,East,15.0,18.4,N/A,,Overcast,100,2012-11-30 03:55:00
10:15 PM,24.8,21.2,86,30.20,10.0,East,9.2,-,N/A,,Overcast,90,2012-11-30 04:15:00
10:35 PM,23.0,23.0,100,30.20,10.0,East,10.4,-,N/A,,Overcast,100,2012-11-30 04:35:00
10:55 PM,23.0,23.0,100,30.20,10.0,East,9.2,-,N/A,,Overcast,80,2012-11-30 04:55:00
11:15 PM,23.0,23.0,100,30.21,10.0,East,8.1,-,N/A,,Overcast,80,2012-11-30 05:15:00
11:35 PM,23.0,23.0,100,30.21,10.0,East,8.1,-,N/A,,Overcast,100,2012-11-30 05:35:00
11:55 PM,23.0,23.0,100,30.20,10.0,East,8.1,-,N/A,,Overcast,80,2012-11-30 05:55:00